Waarnemingen

Advertentie
Mijn weer
Visby Flygplats, Zweden (2590): temperatuur & dauwpunt: 14.01.2019 12:00:00 - 20.01.2019 12:00:00 (CET)Visby Flygplats, Zweden (2590): windsnelheid & windstoten: 14.01.2019 12:00:00 - 20.01.2019 12:00:00 (CET)Visby Flygplats, Zweden (2590): windrichting: 14.01.2019 12:00:00 - 20.01.2019 12:00:00 (CET)Visby Flygplats, Zweden (2590): luchtdruk: 14.01.2019 12:00:00 - 20.01.2019 12:00:00 (CET)Visby Flygplats, Zweden (2590): zicht: 14.01.2019 12:00:00 - 20.01.2019 12:00:00 (CET)Visby Flygplats, Zweden (2590): neerslag: 14.01.2019 12:00:00 - 20.01.2019 12:00:00 (CET)
Datum & Tijd tt [°C] td [°C] ff [km/u] ff [kn] fx [km/u] fx [kn] dd ppp [hPa] vv [km] rr [mm]
20.01.2019 12:00:00 -0,4 -5,7 24 13 32 18 NW 1014,8 10 0,0
20.01.2019 11:00:00 -0,4 -6,0 22 12 32 18 NW 1014,6 10 0,0
20.01.2019 10:00:00 -0,5 -5,5 22 12 32 18 NW 1014,2 10 0,0
20.01.2019 09:00:00 -0,8 -5,8 22 12 29 16 NW 1013,7 10 0,0
20.01.2019 08:00:00 -1,2 -6,3 18 10 29 16 NW 1013,1 10 0,0
20.01.2019 07:00:00 -0,9 -6,7 21 11 29 16 NNW 1012,9 10 0,0
20.01.2019 06:00:00 -0,2 -7,0 21 11 29 16 NNW 1012,5 10 0,0
20.01.2019 05:00:00 0,0 -6,6 24 13 32 18 NW 1012,2 10 0,0
20.01.2019 04:00:00 0,3 -6,3 22 12 32 18 NW 1012,1 10 0,0
20.01.2019 03:00:00 0,8 -4,2 21 11 32 18 NNW 1011,9 10 0,0
20.01.2019 02:00:00 1,1 -5,8 21 11 32 18 NW 1011,8 10 0,0
20.01.2019 01:00:00 1,1 -5,4 24 13 40 21 NW 1011,4 10 0,0
20.01.2019 00:00:00 1,5 -3,4 24 13 32 18 WNW 1011,2 10 0,0
19.01.2019 23:00:00 1,1 -2,1 18 10 43 23 WNW 1011,1 10 0,0
19.01.2019 22:00:00 1,0 -1,7 31 17 47 25 NNW 1010,8 10 0,0
19.01.2019 21:00:00 2,8 -1,0 34 18 43 23 W 1010,1 10 0,0
19.01.2019 20:00:00 2,8 -0,5 29 16 43 23 W 1010,0 45 0,0
19.01.2019 19:00:00 2,8 -0,7 34 18 40 21 W 1009,8 10 0,0
19.01.2019 18:00:00 2,7 -0,6 29 16 43 23 W 1010,2 10 0,0
19.01.2019 17:00:00 2,6 -1,4 28 15 40 21 WZW 1010,5 10 0,0
19.01.2019 16:00:00 1,8 -0,8 24 13 36 19 WZW 1010,2 10 0,0
19.01.2019 15:00:00 0,8 -1,3 28 15 36 19 WZW 1010,4 10 0,0
19.01.2019 14:00:00 1,3 -1,0 29 16 40 21 WZW 1010,8 10 0,0
19.01.2019 13:00:00 1,8 -0,1 26 14 40 21 WZW 1011,2 10 0,0
19.01.2019 12:00:00 1,4 -0,8 22 12 32 18 ZW 1011,7 10 0,0
19.01.2019 11:00:00 1,1 -2,3 18 10 32 18 ZW 1012,2 10 0,0
19.01.2019 10:00:00 0,6 -3,3 21 11 25 14 WZW 1012,7 10 0,0
19.01.2019 09:00:00 0,2 -5,0 15 8 22 12 W 1012,6 10 0,0
19.01.2019 08:00:00 -0,5 -5,1 15 8 25 14 W 1012,5 10 0,0
19.01.2019 07:00:00 -0,3 -3,8 16 9 29 16 WNW 1012,3 10 0,0
19.01.2019 06:00:00 -0,3 -4,5 21 11 32 18 NW 1012,1 10 0,0
19.01.2019 05:00:00 -0,6 -4,8 26 14 36 19 NW 1011,6 10 0,0
19.01.2019 04:00:00 -0,8 -4,9 24 13 40 21 NW 1011,4 10 0,0
19.01.2019 03:00:00 -0,8 -4,7 24 13 40 21 NW 1011,3 10 0,0
19.01.2019 02:00:00 -0,9 -4,6 22 12 36 19 NW 1011,1 10 0,0
19.01.2019 01:00:00 -0,8 -4,3 22 12 32 18 WNW 1010,8 10 0,0
19.01.2019 00:00:00 -1,1 -4,8 21 11 36 19 NW 1010,3 10 0,0
18.01.2019 23:00:00 -0,9 -4,9 24 13 36 19 NW 1009,8 10 0,0
18.01.2019 22:00:00 -0,7 -5,1 24 13 40 21 NW 1009,4 10 0,0
18.01.2019 21:00:00 -0,4 -5,0 28 15 40 21 NW 1008,8 10 0,0
18.01.2019 20:00:00 -0,2 -4,6 28 15 43 23 NW 1008,2 10 0,0
18.01.2019 19:00:00 -0,1 -4,7 31 17 47 25 WNW 1007,7 10 0,0
18.01.2019 18:00:00 0,0 -5,4 35 19 47 25 WNW 1007,3 10 0,0
18.01.2019 17:00:00 0,0 -6,0 35 19 47 25 WNW 1006,9 10 0,0
18.01.2019 16:00:00 0,3 -5,5 31 17 43 23 WNW 1006,6 10 0,0
18.01.2019 15:00:00 0,3 -4,7 29 16 43 23 WNW 1006,1 10 0,0
18.01.2019 14:00:00 -0,2 -4,8 24 13 40 21 W 1005,7 10 0,0
18.01.2019 13:00:00 -0,9 -4,9 22 12 32 18 WNW 1005,7 10 0,0
18.01.2019 12:00:00 -0,9 -4,4 22 12 29 16 WNW 1005,3 10 0,0
18.01.2019 11:00:00 -1,6 -4,6 21 11 36 19 WNW 1004,8 10 0,0
18.01.2019 10:00:00 -1,7 -4,5 21 11 36 19 WNW 1004,3 10 0,0
18.01.2019 09:00:00 -1,8 -4,3 22 12 36 19 NW 1003,5 10 0,0
18.01.2019 08:00:00 -1,8 -4,3 26 14 36 19 NW 1002,6 10 0,0
18.01.2019 07:00:00 -2,0 -4,8 22 12 32 18 NW 1001,9 10 0,0
18.01.2019 06:00:00 -2,3 -4,8 22 12 36 19 NW 1001,4 10 0,0
18.01.2019 05:00:00 -2,3 -5,0 22 12 32 18 NW 1000,9 10 0,0
18.01.2019 04:00:00 -2,4 -5,4 24 13 32 18 NW 1000,4 10 0,0
18.01.2019 03:00:00 -2,1 -6,1 22 12 32 18 NW 999,9 10 0,0
18.01.2019 02:00:00 -2,2 -6,4 18 10 29 16 NW 999,6 10 0,0
18.01.2019 01:00:00 -2,2 -7,1 22 12 32 18 NNW 999,2 10 0,0
18.01.2019 00:00:00 -1,9 -6,3 21 11 32 18 NNW 998,7 10 0,0
17.01.2019 23:00:00 -1,8 -6,2 21 11 36 19 NNW 998,0 10 0,0
17.01.2019 22:00:00 -1,6 -6,7 24 13 36 19 N 997,2 10 0,0
17.01.2019 21:00:00 -1,4 -5,8 21 11 40 21 N 996,3 10 0,0
17.01.2019 20:00:00 -1,1 -5,9 26 14 40 21 N 995,2 10 0,0
17.01.2019 19:00:00 -0,2 -6,4 26 14 32 18 N 993,9 10 0,0
17.01.2019 18:00:00 -0,2 -5,8 24 13 36 19 N 992,9 10 0,0
17.01.2019 17:00:00 -0,4 -4,3 21 11 40 21 N 991,9 10 0,0
17.01.2019 16:00:00 -0,6 -4,1 26 14 43 23 N 991,1 10 0,0
17.01.2019 15:00:00 -0,8 -4,0 28 15 40 21 NNW 990,3 10 0,0
17.01.2019 14:00:00 -0,9 -4,3 29 16 40 21 NW 989,0 10 0,0
17.01.2019 13:00:00 -1,0 -2,9 26 14 40 21 NNW 988,2 10 0,0
17.01.2019 12:00:00 -1,5 -2,6 26 14 40 21 NW 987,3 10 0,0
17.01.2019 11:00:00 -1,6 -3,5 29 16 40 21 NW 986,4 10 0,0
17.01.2019 10:00:00 0,0 -2,4 31 17 43 23 NW 985,3 10 0,0
17.01.2019 09:00:00 1,3 0,7 24 13 40 21 NW 984,1 3,5 0,3
17.01.2019 08:00:00 3,3 2,1 26 14 40 21 W 982,5 9 0,3
17.01.2019 07:00:00 3,5 2,2 28 15 50 27 W 981,9 10 0,2
17.01.2019 06:00:00 4,4 3,5 34 18 43 23 ZW 981,5 10 0,2
17.01.2019 05:00:00 4,7 3,7 31 17 50 27 ZW 982,0 10 0,3
17.01.2019 04:00:00 4,9 3,9 41 22 54 29 ZW 982,4 10 0,4
17.01.2019 03:00:00 5,0 3,8 39 21 54 29 ZW 983,0 10 0,0
17.01.2019 02:00:00 5,0 4,0 41 22 58 31 ZZW 983,7 10 0,0
17.01.2019 01:00:00 5,1 4,1 42 23 54 29 ZZW 984,1 10 0,0
17.01.2019 00:00:00 5,1 4,1 42 23 58 31 ZW 984,8 10 0,0
16.01.2019 23:00:00 5,0 3,8 42 23 58 31 ZW 985,7 10 0,0
16.01.2019 22:00:00 4,9 3,7 42 23 58 31 ZW 986,3 10 0,0
16.01.2019 21:00:00 4,8 3,8 39 21 58 31 ZW 987,0 10 0,0
16.01.2019 20:00:00 5,0 3,8 42 23 54 29 ZW 987,5 10 0,0
16.01.2019 19:00:00 5,1 3,8 35 19 54 29 ZW 988,3 10 0,0
16.01.2019 18:00:00 4,1 3,7 29 16 43 23 ZZW 989,6 10 0,1
16.01.2019 17:00:00 2,3 2,0 21 11 32 18 Z 990,8 3,0 0,1
16.01.2019 16:00:00 1,1 0,8 24 13 32 18 Z 992,3 4,2 0,0
16.01.2019 15:00:00 -0,3 -0,7 22 12 29 16 ZZO 993,6 2,4 0,5
16.01.2019 14:00:00 0,2 -2,0 21 11 29 16 ZZO 995,4 10 0,0
16.01.2019 13:00:00 -0,1 -3,3 16 9 22 12 ZZO 996,8 10 0,0
16.01.2019 12:00:00 -0,5 -4,7 16 9 22 12 Z 997,8 10 0,0
16.01.2019 11:00:00 -1,0 -5,2 9 5 14 8 ZZO 999,0 10 0,0
16.01.2019 10:00:00 -1,4 -5,3 9 5 11 6 Z 999,4 10 0,0
16.01.2019 09:00:00 -3,2 -5,7 8 4 7 4 ZZW 999,6 10 0,0
16.01.2019 08:00:00 -2,7 -5,7 4 2 7 4 WZW 999,4 10 0,0
16.01.2019 07:00:00 -1,2 -5,4 8 4 14 8 NW 999,2 10 0,0
16.01.2019 06:00:00 -1,0 -5,4 11 6 14 8 NNW 999,3 10 0,0
16.01.2019 05:00:00 -0,9 -5,5 9 5 18 10 NW 998,9 10 0,0
16.01.2019 04:00:00 -0,9 -5,5 11 6 22 12 NNW 998,5 10 0,0
16.01.2019 03:00:00 -1,2 -5,8 15 8 25 14 NW 998,0 10 0,0
16.01.2019 02:00:00 -0,7 -4,9 16 9 25 14 NNW 997,1 10 0,0
16.01.2019 01:00:00 -0,7 -4,2 18 10 25 14 NW 996,7 10 0,0
16.01.2019 00:00:00 -0,7 -3,6 15 8 22 12 NW 996,1 10 0,0
15.01.2019 23:00:00 -0,8 -3,5 15 8 22 12 NW 995,7 10 0,0
15.01.2019 22:00:00 -0,9 -3,7 16 9 25 14 NNW 995,2 10 0,0
15.01.2019 21:00:00 -1,1 -3,9 18 10 25 14 NW 994,6 10 0,0
15.01.2019 20:00:00 -1,4 -3,4 18 10 25 14 NW 994,3 9 0,0
15.01.2019 19:00:00 -0,7 -5,1 13 7 25 14 WNW 994,1 10 0,0
15.01.2019 18:00:00 -0,2 -5,4 13 7 18 10 WNW 994,0 10 0,0
15.01.2019 17:00:00 -0,3 -5,9 13 7 22 12 WNW 994,5 10 0,0
15.01.2019 16:00:00 -1,0 -5,8 15 8 22 12 NW 994,6 10 0,0
15.01.2019 15:00:00 -0,6 -5,6 18 10 32 18 NW 994,6 10 0,0
15.01.2019 14:00:00 -0,6 -5,4 24 13 40 21 NW 995,3 10 0,0
15.01.2019 13:00:00 -0,4 -4,8 28 15 40 21 NW 995,6 10 0,0
15.01.2019 12:00:00 0,0 -5,4 29 16 43 23 NNW 995,7 10 0,0
15.01.2019 11:00:00 0,0 -5,8 31 17 50 27 NNW 995,5 10 0,0
15.01.2019 10:00:00 -0,1 -5,9 39 21 58 31 NNW 995,4 10 0,0
15.01.2019 09:00:00 -0,3 -5,7 42 23 61 33 NNW 994,9 10 0,0
15.01.2019 08:00:00 0,0 -6,0 48 26 65 35 NNW 993,8 10 0,0
15.01.2019 07:00:00 0,1 -6,1 48 26 72 39 NNW 992,8 10 0,0
15.01.2019 06:00:00 0,3 -6,6 46 25 76 41 NNW 992,4 10 0,0
15.01.2019 05:00:00 0,3 -7,0 52 28 76 41 NNW 991,6 10 0,0
15.01.2019 04:00:00 0,4 -7,1 57 31 76 41 NNW 990,9 10 0,0
15.01.2019 03:00:00 0,6 -6,9 54 29 76 41 NNW 990,5 10 0,0
15.01.2019 02:00:00 0,7 -7,5 54 29 76 41 NNW 990,0 10 0,0
15.01.2019 01:00:00 0,8 -7,5 54 29 76 41 NW 989,3 10 0,0
15.01.2019 00:00:00 0,8 -6,3 50 27 76 41 NNW 989,3 10 0,0
14.01.2019 23:00:00 0,9 -4,7 44 24 72 39 NW 988,8 10 0,0
14.01.2019 22:00:00 0,9 -4,9 46 25 65 35 NW 988,9 10 0,0
14.01.2019 21:00:00 0,7 -6,4 46 25 65 35 NW 988,5 10 0,0
14.01.2019 20:00:00 0,6 -5,4 50 27 72 39 NW 988,1 10 0,0
14.01.2019 19:00:00 0,2 -4,8 39 21 61 33 NNW 987,5 10 0,0
14.01.2019 18:00:00 -0,1 -5,7 42 23 61 33 NNW 986,9 10 0,0
14.01.2019 17:00:00 -0,2 -6,0 41 22 58 31 NW 985,9 10 0,0
14.01.2019 16:00:00 -0,1 -6,5 39 21 58 31 NW 984,9 10 0,0
14.01.2019 15:00:00 -0,2 -6,4 39 21 58 31 NW 984,5 10 0,0
14.01.2019 14:00:00 -0,5 -6,5 39 21 61 33 NW 984,4 10 0,0
14.01.2019 13:00:00 -0,6 -6,0 37 20 58 31 NW 984,1 10 0,0
14.01.2019 12:00:00 -1,2 -6,2 34 18 54 29 NW 983,6 10 0,0

tt = temperatuur
td = dauwpunt
ff = windsnelheid
fx = windstoten
dd = windrichting
ppp = luchtdruk
vv = zicht
rr = neerslag

Weerstations in de omgeving